GFSNE_700_spd_000.txt.gz
Wind_Speed
17 18 18 19 19 21 21 24 27 28 28 24 25 25 27 26 28 27 29 31 33 34 36 37 38 42 45 46 50 50 50 47 47 46 43 40 38 35
15 17 17 19 21 23 25 27 30 32 33 30 28 26 25 29 29 29 30 32 34 37 38 39 40 42 43 47 50 52 53 52 49 48 47 44 41 39
17 19 19 21 22 24 26 29 31 33 34 28 31 28 26 27 29 30 30 32 34 35 39 43 43 43 45 48 51 52 53 54 52 51 49 48 45 42
17 19 19 23 24 25 28 31 32 31 33 33 30 34 32 28 30 31 33 33 35 35 36 40 46 47 46 47 53 55 53 57 55 53 52 50 48 45
19 20 21 24 22 25 27 30 32 32 32 34 34 33 33 28 32 33 35 38 38 41 43 42 47 50 51 49 51 57 55 53 57 55 54 53 50 46
18 20 23 26 25 25 27 31 33 34 33 36 36 35 35 32 36 38 40 41 44 45 46 47 46 51 53 51 49 55 58 55 52 55 55 51 51 49
19 23 24 27 28 27 26 25 28 30 31 33 36 35 33 35 36 38 41 45 45 46 48 42 40 47 52 52 52 51 58 58 55 53 56 54 50 48
24 23 25 31 30 29 30 32 31 32 32 33 34 33 33 36 37 41 46 49 56 55 53 42 37 41 49 51 52 51 57 57 54 53 58 56 51 48
30 28 32 32 31 30 32 37 36 34 35 36 37 34 36 34 40 44 43 49 54 59 53 44 44 39 44 50 48 49 55 56 54 51 53 59 53 49
30 34 34 32 28 32 37 37 27 29 34 34 36 35 34 36 40 40 44 47 59 59 59 59 45 36 39 47 46 47 52 53 51 49 52 52 51 49
32 33 33 33 30 33 34 29 26 29 33 32 33 32 36 39 36 42 44 53 64 61 57 57 40 34 38 44 43 44 50 49 49 48 55 50 48 47
32 33 33 35 35 37 33 31 29 30 33 29 28 32 36 34 32 38 44 53 62 63 50 43 29 21 32 40 37 40 44 45 47 47 48 55 47 48
31 30 32 32 32 33 33 29 29 30 33 31 30 33 32 30 30 34 41 51 53 55 34 32 20 16 25 23 29 34 38 39 43 40 48 59 54 52
29 29 29 31 31 31 29 27 29 31 31 30 30 31 29 28 31 35 43 40 38 39 26 17 17 13 19 24 28 31 34 35 38 37 42 49 51 52
26 27 28 31 30 25 24 24 27 30 29 27 27 26 26 27 31 36 40 40 36 28 19 19 19 11 20 26 26 28 29 34 37 35 37 49 50 48
26 27 29 29 25 23 21 25 25 27 26 24 23 24 26 27 31 32 36 43 37 20 15 17 19 17 22 27 27 28 27 32 34 36 36 40 53 48
25 28 28 27 21 20 23 25 27 28 26 23 23 25 25 26 24 27 30 41 38 27 10 9 18 21 18 23 25 26 29 30 34 36 37 38 39 41
25 25 27 15 13 18 23 25 26 25 24 23 23 24 22 24 24 21 24 31 40 28 14 10 12 18 19 18 19 25 27 31 30 41 39 38 38 37
22 20 13 11 15 20 24 25 24 22 22 22 22 22 21 22 20 16 19 23 29 31 21 10 13 16 20 24 23 22 21 19 29 37 38 36 35 35
23 19 19 21 23 26 26 24 23 22 21 20 19 21 20 18 16 13 14 20 24 28 19 14 11 9 20 25 30 23 26 28 26 34 37 32 32 35
23 22 22 23 25 26 24 22 20 19 18 18 17 17 17 15 14 12 11 14 20 23 25 22 24 21 7 10 26 28 24 25 30 26 35 32 31 31
22 22 22 23 23 22 21 19 18 17 16 16 14 13 14 13 11 10 10 8 13 17 21 22 26 20 15 18 13 10 28 30 26 28 26 31 30 27
21 21 22 21 20 18 17 16 14 14 13 12 12 9 9 10 11 10 10 10 9 10 13 18 22 24 27 17 23 27 13 22 28 25 24 27 28 27

GFSNE_700_spd_006.txt.gz
Wind_Speed
14 13 13 14 15 15 16 17 19 21 17 16 19 23 22 23 24 25 26 28 27 30 33 34 34 35 35 36 36 36 38 40 44 46 48 47 45 42
16 15 14 15 15 14 17 19 22 22 22 20 23 26 28 26 28 26 25 26 27 29 32 34 37 39 39 39 38 38 38 39 40 45 48 51 49 48
15 15 16 16 17 17 17 20 22 23 22 18 23 26 31 35 31 30 30 30 29 29 31 33 35 36 40 41 42 42 41 42 42 43 46 49 53 52
15 14 17 19 18 17 20 22 23 26 27 32 23 26 31 35 35 32 29 31 33 31 30 32 33 33 36 39 41 43 45 44 44 46 46 48 52 54
15 16 17 20 19 19 23 24 26 30 28 29 31 30 30 33 32 31 32 30 31 32 34 34 34 35 35 35 35 38 42 49 47 47 49 49 50 53
18 19 20 21 21 25 27 27 32 34 30 29 28 26 34 29 27 29 26 27 30 30 33 34 33 34 38 42 44 44 41 44 52 51 50 51 51 53
23 22 24 26 29 28 32 31 32 33 32 32 29 29 36 30 28 33 34 29 32 31 32 36 38 38 36 42 44 45 48 48 51 56 53 54 53 54
27 26 28 29 31 29 32 33 33 36 35 33 33 36 37 33 32 35 39 39 38 34 38 40 41 40 42 43 50 52 56 58 57 58 57 55 56 56
31 32 32 31 32 31 31 33 35 36 35 35 38 38 34 37 38 38 39 39 40 36 40 41 43 47 47 52 58 55 55 57 58 61 58 57 57 57
32 34 39 38 37 31 32 37 37 35 37 36 39 42 41 37 36 38 39 40 40 40 40 44 44 52 55 61 58 48 48 50 55 60 58 56 56 57
35 42 40 44 45 30 33 37 36 36 36 38 38 39 37 34 37 40 38 41 42 40 37 44 50 54 63 52 32 32 35 41 46 55 54 50 52 56
40 42 42 35 35 30 34 36 37 35 36 36 37 33 31 33 33 36 36 38 39 41 38 47 49 56 61 36 25 25 29 35 39 46 49 48 49 56
43 44 42 30 35 35 35 36 35 35 36 33 27 28 31 33 34 34 34 36 38 42 38 44 47 55 57 44 28 26 26 22 29 38 48 49 50 54
37 36 35 33 34 33 35 34 34 34 33 29 28 31 33 34 34 34 33 35 36 38 38 37 46 53 54 42 34 21 24 19 17 28 36 42 47 50
32 30 32 34 32 35 32 33 34 33 29 27 29 31 32 33 32 32 33 32 32 31 32 35 44 49 45 32 30 19 21 14 21 20 26 36 42 47
30 31 32 33 33 32 33 32 32 27 23 24 26 30 31 31 30 30 31 30 29 24 27 31 42 43 38 23 21 23 21 15 20 21 25 30 35 41
29 30 32 30 29 30 29 30 24 19 21 26 30 32 32 31 30 28 29 26 25 25 28 34 39 37 33 20 20 22 25 13 14 19 22 27 33 37
27 30 30 29 27 26 25 24 24 25 28 30 31 30 31 29 28 26 25 23 23 24 28 32 36 36 31 17 16 21 18 23 10 18 24 27 31 35
27 28 25 25 24 24 25 25 25 28 29 29 28 28 28 26 25 24 22 20 19 20 24 27 33 39 28 25 18 18 19 16 16 19 21 28 30 34
22 20 20 22 23 23 24 24 24 26 27 26 25 25 23 22 21 20 20 19 19 19 23 28 30 35 39 30 31 24 21 19 18 15 14 18 30 34
22 20 21 22 22 21 21 21 22 23 23 22 21 19 18 18 17 17 18 18 19 19 21 19 26 27 33 29 20 22 17 18 17 20 19 20 17 33
20 21 23 22 19 20 20 20 21 21 20 18 16 15 14 14 15 15 15 16 17 16 15 22 22 23 28 34 25 21 18 12 15 18 18 19 19 29
21 22 21 19 19 19 19 19 19 18 16 14 13 12 12 13 14 14 14 14 16 16 15 16 12 19 29 29 29 28 19 13 7 16 21 15 20 27

GFSNE_700_spd_009.txt.gz
Wind_Speed
13 11 10 11 11 10 10 12 14 14 11 10 17 18 26 20 28 23 22 24 24 27 30 29 29 31 32 34 35 34 34 35 35 37 40 43 44 43
14 13 12 11 12 13 13 11 11 13 16 13 16 20 26 26 26 30 26 25 26 26 28 31 32 32 34 35 37 38 37 36 36 37 37 40 44 46
16 16 13 12 14 15 13 12 17 15 17 17 21 24 28 29 32 33 32 33 30 28 30 28 29 34 35 36 36 38 40 39 38 38 38 38 41 44
19 18 17 16 15 14 13 19 22 24 26 28 28 24 25 25 30 31 32 30 29 27 27 30 30 32 34 35 36 36 39 40 40 39 41 42 42 43
21 18 18 17 15 13 14 18 22 25 26 28 27 25 22 24 27 33 30 30 29 29 26 31 35 29 28 33 35 38 39 41 40 40 42 42 44 47
23 22 20 22 24 22 20 22 25 26 28 27 30 33 30 24 25 36 33 27 32 31 28 32 30 34 31 31 35 35 37 40 44 45 47 46 46 48
25 25 23 24 26 27 28 30 25 26 29 31 33 33 32 27 31 36 34 34 33 25 37 33 32 34 37 39 38 37 36 38 42 45 50 55 54 49
29 29 27 26 29 32 32 34 35 30 28 32 33 33 33 34 32 34 37 40 40 38 39 39 39 38 39 41 38 36 38 43 50 55 57 58 59 57
31 29 28 25 27 30 37 43 45 32 29 33 34 34 35 35 37 38 38 38 37 37 40 41 39 41 37 37 36 40 41 52 59 61 64 64 63 60
31 32 30 26 30 35 40 37 41 40 34 34 36 36 35 38 38 35 33 33 34 34 36 36 36 38 37 40 44 44 49 59 55 59 62 62 64 66
33 32 29 32 33 38 44 36 33 33 31 35 36 33 35 34 29 31 32 33 33 35 30 33 34 38 42 45 46 43 55 60 49 52 54 52 51 55
30 28 29 33 37 36 35 32 36 34 34 33 34 36 34 27 27 31 33 33 36 37 30 34 38 39 42 42 48 54 61 43 38 39 41 45 43 50
28 30 37 33 31 28 30 32 34 34 34 33 33 33 29 27 29 26 35 37 38 36 31 33 34 33 40 49 53 55 44 27 31 30 32 32 39 45
30 33 36 33 28 31 33 33 34 33 32 33 33 27 26 26 28 31 32 34 34 31 28 27 26 33 41 47 58 49 30 23 25 27 30 29 36 42
32 35 28 28 32 34 34 35 34 30 31 30 27 23 24 27 30 32 32 32 31 29 28 23 26 33 39 46 53 53 37 19 24 21 30 28 27 35
28 26 26 31 34 36 38 35 29 27 26 22 20 24 29 31 32 32 30 29 29 26 24 21 26 32 36 45 45 45 35 31 23 22 21 21 21 23
21 26 28 31 33 34 33 33 32 28 24 23 27 30 31 31 31 30 27 26 25 24 23 19 25 29 33 42 45 36 32 28 23 16 16 15 20 18
22 24 27 30 21 22 22 24 29 30 30 27 28 29 28 29 29 25 23 22 22 22 21 24 28 31 35 31 40 33 27 24 22 15 20 10 18 19
23 25 26 28 26 26 26 27 28 30 28 27 26 26 26 26 24 22 20 20 20 20 20 22 27 28 34 38 45 38 40 26 16 10 21 14 18 19
23 23 26 26 25 26 25 25 26 25 25 24 24 24 23 22 20 18 17 19 19 19 19 20 23 30 30 38 43 46 36 32 14 15 12 16 17 20
22 25 22 22 24 26 25 22 22 21 21 21 21 20 18 17 17 16 16 17 18 19 21 22 23 24 27 31 35 44 42 31 21 11 15 14 19 14
23 21 22 22 23 22 19 19 18 19 18 18 17 16 16 15 15 15 15 16 17 18 20 23 22 20 24 33 35 39 40 34 20 13 8 15 16 27
23 21 22 23 22 20 18 18 18 17 17 16 14 14 14 15 15 15 15 14 15 18 18 19 22 22 23 27 29 37 32 40 32 9 8 12 20 21

GFSNE_700_spd_015.txt.gz
Wind_Speed
28 25 24 25 21 15 14 10 9 7 8 11 15 17 17 17 21 19 18 17 17 20 21 22 24 25 26 25 26 26 25 26 28 30 31 31 32 32
27 27 25 27 22 18 16 13 12 10 7 6 9 13 15 17 21 22 22 21 18 19 18 21 23 25 26 26 26 25 26 27 27 29 30 32 33 34
29 26 26 27 20 18 18 15 13 12 10 11 12 14 15 15 18 20 19 19 20 18 21 21 19 17 19 24 27 26 26 27 28 29 30 31 34 35
31 28 27 28 20 20 18 14 17 14 13 13 16 18 18 26 25 24 22 22 22 18 20 24 23 21 21 21 22 25 26 28 30 30 31 30 33 35
32 28 29 27 19 21 21 22 13 13 17 19 21 20 24 26 28 27 24 22 25 26 25 25 25 27 28 28 30 28 30 28 28 30 31 33 35 36
35 32 30 26 20 20 23 20 19 21 22 19 25 22 27 25 27 28 29 28 27 27 29 31 30 33 33 33 32 32 34 34 32 33 33 34 37 39
37 35 33 29 23 21 24 22 22 25 19 23 28 27 25 23 27 33 31 31 30 27 31 32 32 33 32 32 33 34 36 37 38 38 37 37 38 38
38 35 32 31 28 20 24 24 24 22 23 25 29 27 25 25 25 28 31 32 31 26 33 25 25 27 29 29 30 33 35 35 37 38 38 39 41 41
34 32 31 26 27 22 26 24 27 21 24 28 29 27 27 26 27 28 31 32 31 29 28 28 27 30 31 32 31 28 30 33 36 35 37 41 44 45
33 31 27 23 24 22 27 32 27 20 24 28 28 27 27 27 28 31 32 32 31 26 26 31 27 30 31 32 29 30 31 33 35 36 36 37 40 45
27 27 25 24 20 23 28 26 19 23 26 27 26 26 27 29 29 32 31 34 29 22 20 29 30 33 33 30 28 29 30 31 30 32 35 40 46 48
23 25 22 26 25 27 24 19 23 24 23 26 27 26 29 30 29 30 31 28 23 24 22 30 32 33 36 30 28 27 28 29 33 37 41 43 46 53
20 19 20 20 24 18 18 19 22 22 27 30 30 29 29 29 29 31 24 23 27 31 32 33 34 33 34 37 29 26 29 31 35 37 41 44 50 51
22 16 18 18 19 18 18 21 22 26 30 31 32 28 25 24 25 21 22 26 31 34 34 33 35 32 33 33 33 29 32 34 37 39 42 50 51 48
21 17 16 19 18 21 22 23 26 28 28 25 24 20 19 20 20 22 25 28 29 29 31 32 31 29 29 29 33 34 38 39 38 43 45 47 48 42
17 17 19 20 23 24 23 26 27 25 24 25 19 14 17 20 22 25 26 27 28 26 24 24 26 25 25 27 32 37 38 43 43 44 47 47 43 34
14 14 17 19 20 23 25 25 20 25 27 26 24 24 22 22 22 24 25 25 24 23 20 19 21 22 25 29 34 34 38 42 41 44 44 48 33 29
12 14 16 19 23 22 21 21 24 26 27 28 24 22 23 24 25 23 23 22 20 19 20 20 20 21 22 21 23 31 36 38 42 45 46 48 29 24
15 16 18 21 22 20 20 24 26 26 27 28 24 22 22 24 24 22 19 18 17 18 19 21 21 24 28 29 25 28 37 43 47 46 46 45 28 22
18 19 18 20 17 17 18 20 22 24 24 22 22 22 23 24 22 19 18 17 17 18 20 19 21 24 29 30 34 33 36 42 45 48 49 42 23 23
20 22 22 16 16 18 21 20 20 20 19 20 21 21 22 21 18 17 17 17 17 19 20 19 21 24 27 28 31 33 33 35 42 49 50 47 15 17
21 20 21 20 18 19 21 20 20 19 19 20 20 18 17 16 16 15 16 17 18 19 20 20 22 24 27 28 31 34 34 35 38 42 48 38 22 13
17 17 20 18 18 17 16 17 18 18 20 19 15 14 14 13 14 15 16 17 19 19 20 20 20 24 26 28 31 32 33 33 39 40 48 33 16 10

GFSNE_700_spd_021.txt.gz
Wind_Speed
18 18 18 18 18 16 10 11 12 10 12 12 12 10 9 10 10 11 13 14 14 16 18 19 20 23 23 22 22 23 22 22 24 26 28 29 31 30
20 22 22 20 17 16 14 12 12 12 11 9 9 10 12 11 12 12 13 16 20 22 23 22 22 23 25 26 25 24 26 24 23 23 26 29 30 32
21 23 26 24 20 18 15 16 12 14 13 12 10 12 15 16 17 18 20 22 25 26 26 25 24 25 26 27 30 29 28 26 26 26 28 28 28 31
22 24 25 28 24 21 18 18 14 16 16 17 16 13 16 20 19 20 21 25 28 29 29 29 28 28 29 28 30 31 31 31 30 29 29 31 32 32
25 26 24 27 28 23 21 19 20 19 19 18 18 14 18 21 23 25 27 27 30 30 30 32 34 34 33 33 32 31 31 33 35 36 36 36 34 36
25 25 25 25 25 24 24 23 22 23 22 22 21 22 23 24 27 30 33 31 29 27 28 29 32 33 33 35 35 35 36 36 35 36 38 39 40 39
24 25 26 27 24 22 25 24 24 24 23 26 27 30 30 30 32 32 31 32 28 31 32 32 34 34 34 37 36 36 35 34 33 33 33 33 33 35
23 28 30 28 24 20 24 26 28 26 27 27 33 33 35 36 33 33 30 31 33 31 34 33 35 37 34 33 32 34 36 34 34 35 35 35 36 36
26 30 31 29 27 24 25 28 27 28 33 32 34 33 35 34 27 30 30 34 35 34 38 40 36 36 36 37 32 29 29 32 34 36 37 37 38 39
29 33 32 31 30 26 24 24 25 27 29 27 29 30 25 23 31 30 31 36 38 37 39 43 38 36 34 32 30 30 31 35 35 35 37 39 39 38
30 34 32 31 28 24 22 23 26 24 27 25 24 23 26 27 29 32 34 40 42 41 38 41 38 36 31 29 30 32 34 37 37 38 38 38 39 40
36 32 30 26 23 20 21 23 22 24 24 25 25 27 27 27 33 37 40 40 39 37 33 36 33 33 36 32 31 30 32 34 35 36 38 37 38 40
33 30 25 22 21 20 21 22 22 25 24 23 25 27 30 31 35 35 34 34 34 33 34 35 36 36 37 38 33 33 33 32 33 35 35 35 37 41
32 26 22 20 18 19 21 20 21 20 20 21 25 26 29 32 31 30 29 30 32 33 33 35 35 36 37 38 38 33 32 31 33 34 33 32 35 39
25 21 20 18 19 21 22 20 17 19 21 20 24 26 26 25 25 26 27 29 30 31 32 33 35 36 36 35 35 33 33 32 32 35 35 35 38 40
19 17 18 19 19 20 20 18 19 19 19 22 23 24 22 22 25 27 25 25 26 26 28 30 31 33 33 31 33 33 32 37 37 38 40 39 41 42
18 17 18 17 17 17 15 14 16 19 21 22 22 21 21 23 25 27 27 27 28 27 25 25 27 29 30 32 33 32 35 35 38 41 42 43 43 43
15 15 14 14 14 13 13 16 19 21 21 21 22 21 22 23 25 26 26 27 27 26 26 26 27 28 28 26 30 32 32 37 38 40 42 46 47 44
13 13 12 13 12 13 16 18 19 20 20 20 19 20 21 22 24 25 25 24 24 25 25 26 27 30 32 33 29 30 34 37 38 39 41 43 48 50
13 12 12 11 13 15 16 17 18 17 18 18 19 20 20 21 23 23 22 22 23 23 24 25 28 30 32 32 30 26 32 36 38 40 44 45 55 55
12 10 11 13 16 15 15 15 16 17 18 18 18 20 20 21 21 19 20 22 22 23 24 25 26 27 28 28 29 29 26 30 36 41 46 54 62 57
10 11 12 14 15 14 15 16 17 18 18 17 18 20 21 21 20 18 20 19 21 23 23 24 25 25 26 27 28 28 29 29 32 36 39 53 57 61
12 14 14 14 14 14 16 19 18 18 18 17 18 19 20 19 18 18 19 20 20 21 22 22 23 24 25 26 27 28 30 33 35 37 35 49 46 52

GFSNE_700_spd_024.txt.gz
Wind_Speed
11 13 13 13 14 15 16 17 12 10 8 8 10 10 9 8 9 11 13 14 15 16 17 19 20 20 21 21 21 21 20 19 21 24 27 28 28 28
13 15 16 17 15 13 13 13 15 13 10 11 11 11 10 12 13 13 15 18 19 21 24 26 27 26 26 25 26 26 26 24 22 21 22 24 26 28
15 15 16 18 20 17 15 13 13 17 11 14 15 13 14 15 16 17 19 20 22 24 28 29 31 30 28 28 28 28 28 28 27 25 26 26 25 24
17 18 18 18 18 18 17 16 16 16 17 18 17 17 18 19 19 21 22 22 23 26 29 30 30 29 31 32 32 31 29 29 30 30 29 29 29 29
18 20 21 21 20 18 19 19 19 20 21 16 18 21 22 24 23 25 27 29 29 31 30 30 29 29 28 29 30 31 32 32 32 31 33 33 32 32
20 21 22 24 22 23 23 21 22 23 23 21 22 24 25 27 28 28 31 33 33 33 32 29 30 33 34 34 34 34 32 31 32 34 33 32 30 30
22 22 24 23 24 24 24 26 26 26 28 28 24 26 29 30 32 34 34 35 31 31 33 31 31 31 31 33 33 34 36 36 35 33 32 32 32 32
23 21 26 28 24 24 25 27 28 29 29 29 26 27 23 30 32 35 38 29 26 31 34 29 31 33 34 37 35 34 34 34 36 36 34 33 33 33
25 25 26 28 30 27 27 27 30 31 31 29 29 27 26 29 28 30 30 28 31 31 36 37 36 37 35 36 33 33 30 30 32 34 35 36 36 35
26 26 28 33 30 28 30 32 30 29 23 28 29 24 25 23 24 26 30 30 31 33 38 42 39 36 33 31 31 29 28 29 31 34 36 38 39 39
25 30 30 31 29 30 32 31 28 26 25 27 26 25 24 23 27 29 31 33 35 35 35 37 36 35 32 28 27 29 32 34 35 35 35 36 36 38
29 29 32 32 31 32 31 28 28 24 27 28 26 24 24 25 28 30 30 33 34 34 33 32 31 33 35 30 29 29 31 32 33 33 33 33 34 38
31 33 36 38 35 32 29 28 26 24 28 27 24 23 23 26 28 29 31 31 30 30 32 33 31 31 33 35 29 29 31 30 29 29 31 31 31 32
30 31 40 40 36 31 29 27 24 22 22 20 21 21 25 26 28 31 28 26 27 27 29 31 32 33 35 35 31 26 27 26 28 29 30 31 30 30
31 31 37 37 33 30 28 25 21 19 19 18 21 22 24 26 26 28 26 24 26 27 28 31 32 32 31 31 31 28 30 29 29 30 31 33 33 33
29 29 37 36 32 27 25 20 16 18 18 19 21 22 23 24 25 24 23 25 26 25 26 29 30 28 28 29 30 30 30 33 34 34 36 37 35 36
27 30 37 31 27 23 19 15 16 17 17 20 20 20 21 22 21 22 22 24 26 27 25 24 26 27 27 27 30 31 33 34 34 36 37 38 35 36
26 34 30 27 22 19 16 15 17 18 19 20 19 19 20 19 20 21 22 23 26 25 24 24 25 26 26 24 27 31 30 31 32 33 34 38 35 36
26 28 24 21 19 16 16 17 19 19 19 19 19 20 19 18 19 20 21 23 24 22 22 25 26 27 28 28 25 29 33 34 34 33 35 37 41 39
27 22 21 20 16 17 17 17 19 20 19 19 19 19 17 18 18 19 20 20 20 20 21 23 25 26 28 29 28 27 32 33 35 36 38 39 43 45
21 19 21 20 18 17 16 17 19 20 19 18 19 17 15 16 16 16 17 17 18 19 20 22 24 24 26 27 28 28 28 30 35 38 42 46 45 57
22 22 21 18 17 16 15 18 20 20 18 18 16 14 13 14 14 15 15 16 18 19 20 22 22 23 25 26 27 30 31 32 33 34 38 41 49 66
21 19 16 16 15 15 17 19 21 19 16 15 14 13 12 13 13 15 15 15 17 19 19 20 20 22 24 26 27 30 32 34 35 34 34 32 44 49

GFSNE_700_spd_030.txt.gz
Wind_Speed
8 7 6 6 6 7 6 6 6 6 8 14 12 14 15 17 17 15 14 14 15 16 17 19 19 19 20 21 21 20 20 18 16 16 17 18 19 19
12 11 11 11 10 9 8 8 9 9 10 10 11 13 16 19 19 19 19 19 19 18 20 20 23 25 25 24 23 22 20 19 21 20 20 19 19 19
15 13 14 15 16 14 13 12 12 12 12 14 16 18 17 18 20 21 21 21 23 21 22 23 23 26 27 27 27 23 22 22 22 21 21 20 22 22
18 17 17 19 18 18 16 15 16 15 16 18 21 20 19 18 20 22 22 24 23 28 26 28 29 28 28 29 27 27 26 26 25 24 22 22 22 22
22 21 21 23 22 22 18 17 18 18 18 21 22 23 22 21 22 24 23 26 26 28 28 31 31 31 31 27 30 32 29 31 31 29 29 26 26 25
26 24 24 25 25 25 24 21 21 21 20 22 23 25 25 23 21 23 26 27 27 26 30 32 33 34 27 26 26 31 34 35 34 33 31 28 28 27
30 28 27 27 26 28 29 28 27 24 25 23 23 25 26 26 25 26 24 28 27 26 25 28 27 28 30 28 30 29 33 32 32 30 30 31 32 29
34 32 31 31 30 31 31 33 33 28 25 25 24 25 25 24 26 25 24 27 27 30 27 26 30 29 27 29 31 32 31 30 31 32 32 31 29 30
38 37 36 36 32 33 34 35 37 30 25 26 24 24 24 23 25 25 28 27 25 26 26 26 26 28 29 29 31 29 30 30 29 30 31 32 32 32
44 42 40 39 37 36 35 37 37 32 24 27 23 22 22 24 25 27 25 24 24 25 30 28 28 30 27 25 31 29 30 31 31 30 30 31 32 33
47 47 46 44 41 38 39 37 37 31 25 27 25 25 22 23 24 25 22 23 24 24 32 29 28 30 28 26 27 31 29 30 30 30 31 31 31 31
53 51 49 48 45 41 42 40 39 28 26 26 26 25 23 24 25 23 22 24 25 26 32 27 27 29 31 27 27 30 32 32 29 28 28 28 28 28
56 57 53 51 49 43 44 43 36 30 28 27 23 24 23 25 25 24 22 23 26 26 30 26 26 27 29 29 30 30 30 30 30 29 31 32 28 27
57 57 58 51 50 49 47 43 34 29 31 28 26 24 24 24 24 24 23 26 27 24 26 24 26 28 29 27 27 27 28 30 30 30 28 30 30 27
55 60 59 51 50 53 49 43 32 26 31 29 28 25 24 23 25 23 24 28 26 25 23 23 24 27 28 27 27 27 28 27 27 28 29 26 26 27
59 61 63 51 49 48 45 36 30 28 42 29 30 26 25 24 23 26 26 28 23 25 23 22 24 25 25 27 28 27 28 28 28 28 28 26 27 27
61 63 54 54 52 54 44 40 34 34 44 30 30 26 25 23 25 26 27 27 21 21 23 29 24 21 24 27 27 26 26 26 28 28 31 29 29 30
63 58 55 53 46 44 51 51 38 31 32 31 27 26 25 24 27 28 27 24 22 21 22 24 25 22 23 26 25 25 25 26 27 29 31 33 32 30
55 54 56 49 48 64 54 45 36 32 30 31 26 26 25 27 29 29 27 21 21 21 22 25 24 20 20 19 21 25 24 26 28 29 32 34 35 33
54 55 45 50 49 45 42 45 33 30 31 27 25 26 27 29 28 27 24 21 22 21 23 24 24 21 19 19 20 20 24 24 29 32 34 34 35 35
52 49 48 45 41 36 34 33 29 29 30 26 26 28 29 28 28 26 22 22 22 22 23 25 24 20 18 18 19 20 23 29 28 33 34 35 36 40
46 36 35 31 32 32 33 31 29 33 30 27 28 28 28 27 26 25 22 24 22 22 23 25 24 20 18 17 18 20 23 26 31 34 33 33 35 38
33 32 29 32 29 27 31 33 34 28 26 28 29 27 28 26 26 24 22 23 24 22 22 23 22 19 17 17 18 19 23 26 30 34 33 33 35 35

GFSNE_700_spd_033.txt.gz
Wind_Speed
8 5 4 4 6 8 8 7 6 2 6 17 11 13 11 17 15 16 17 16 16 16 15 14 14 15 18 21 21 20 21 20 19 19 19 18 19 19
13 11 10 10 8 8 10 10 9 8 6 9 16 13 16 17 20 15 15 14 16 17 16 17 19 21 23 24 22 21 20 18 17 18 20 21 20 20
19 17 14 16 14 11 12 13 13 12 12 12 14 18 16 17 21 17 18 17 16 16 14 18 21 23 24 25 25 24 20 21 19 17 17 22 21 23
22 21 18 19 18 17 15 15 16 16 15 17 17 25 20 19 19 21 20 20 18 23 23 23 23 26 26 26 27 22 21 23 22 25 26 22 26 27
26 24 22 22 21 21 20 20 18 17 17 18 20 22 25 24 22 21 21 20 20 24 27 22 23 25 25 23 22 21 27 24 28 29 29 28 28 27
29 29 27 26 25 23 25 23 24 21 20 21 21 22 27 28 26 23 24 24 22 22 23 28 29 27 25 25 24 23 24 26 30 30 30 27 26 27
35 34 33 31 28 27 27 28 28 27 24 26 25 24 25 26 25 25 25 23 21 25 23 24 25 31 34 34 33 29 23 24 25 26 28 28 27 25
40 39 36 36 34 31 30 31 32 31 28 24 26 27 26 29 26 25 25 24 24 20 26 24 24 28 30 26 32 33 31 31 29 28 28 29 30 30
42 43 42 40 38 37 35 34 36 34 33 29 24 26 27 29 28 25 25 25 25 23 24 22 22 27 27 29 29 26 27 29 31 31 30 28 29 29
44 45 47 45 44 41 40 39 39 39 36 32 26 26 27 29 27 24 26 25 24 21 22 24 24 26 27 23 28 28 27 29 31 32 31 30 29 28
45 50 50 50 49 47 45 45 43 42 40 35 28 30 27 28 25 25 24 24 23 23 26 26 25 27 27 25 25 29 33 33 30 28 29 29 29 30
43 48 53 54 52 52 51 47 48 44 43 40 30 30 29 30 28 25 25 23 23 26 22 25 27 28 27 24 25 29 33 34 33 31 30 29 28 27
46 46 49 52 53 53 53 51 50 45 43 41 34 33 32 35 28 25 24 25 23 22 25 22 25 24 24 23 25 27 29 32 32 29 31 30 29 28
50 50 51 52 54 55 54 53 49 45 44 41 36 36 34 33 28 25 23 23 24 22 23 23 25 23 23 22 25 25 27 29 30 30 27 27 27 28
51 57 58 58 58 57 58 50 47 47 43 41 36 40 36 29 26 31 24 24 22 20 23 23 22 22 23 21 24 25 28 27 30 28 28 27 28 29
56 59 62 56 64 68 62 51 46 40 41 43 37 44 49 29 40 40 28 23 22 21 22 23 21 19 20 19 24 26 26 27 29 27 27 29 30 31
54 60 65 68 69 67 68 58 50 63 50 48 58 56 33 28 36 35 27 24 22 21 24 24 21 18 18 18 23 25 24 25 28 27 28 30 33 33
61 61 60 63 72 73 70 65 65 64 57 58 60 40 36 29 34 32 28 23 21 22 23 24 26 22 21 21 24 24 24 24 27 27 28 32 34 33
59 60 59 62 59 62 68 68 59 33 35 46 43 39 36 34 34 31 26 23 22 22 25 25 23 21 20 19 25 28 26 24 25 27 28 31 35 34
63 66 70 64 61 54 56 58 43 39 48 40 38 39 33 34 28 29 26 25 22 24 25 24 22 22 18 19 22 25 29 24 25 27 29 30 32 35
69 73 70 67 56 49 50 39 36 44 42 37 37 31 34 27 29 27 22 26 26 25 23 23 22 21 19 19 21 25 27 28 26 28 30 32 31 34
66 72 69 62 44 46 33 32 33 34 28 27 26 28 29 27 27 23 24 27 26 24 24 23 22 21 19 19 21 23 24 23 27 30 34 37 35 35
55 48 77 49 46 31 27 26 24 26 27 28 29 28 27 26 22 23 26 26 26 25 21 21 22 22 20 20 21 21 22 22 23 26 31 36 35 36

GFSNE_700_spd_036.txt.gz
Wind_Speed
7 5 4 4 4 4 5 6 6 6 7 11 14 14 14 18 17 15 14 10 11 11 11 11 11 13 17 18 18 18 20 20 16 14 15 16 16 18
12 10 9 10 9 7 7 7 7 7 7 12 14 14 12 16 17 17 17 14 13 12 12 10 12 15 17 19 20 18 20 17 18 18 15 16 16 15
17 14 13 15 14 12 10 11 11 10 9 10 14 19 18 20 21 20 19 17 17 16 11 12 15 15 16 19 18 19 19 18 19 23 22 21 20 21
21 19 17 17 18 17 15 14 15 15 13 12 14 18 20 20 21 22 21 20 18 19 16 14 12 13 16 18 17 20 22 22 22 23 25 25 22 22
25 25 23 21 21 20 20 20 19 19 17 15 14 18 22 23 23 21 20 20 19 20 14 17 15 18 17 18 20 23 21 18 19 22 25 24 24 21
29 28 27 27 24 23 24 24 25 24 21 21 17 16 20 25 26 24 22 19 14 21 20 21 13 17 19 20 24 21 15 16 16 17 18 20 20 23
33 32 29 29 29 27 28 28 28 30 28 26 24 22 20 22 25 27 27 29 26 17 21 23 18 22 22 24 26 27 26 21 19 20 19 20 22 23
32 35 35 33 33 32 32 32 32 32 32 31 30 28 24 23 24 26 27 28 27 23 24 22 20 19 21 24 26 25 23 22 24 26 25 23 23 22
30 34 39 38 38 37 37 36 37 37 35 33 33 30 27 26 26 26 26 28 28 27 26 23 21 21 23 23 24 23 20 19 22 26 26 24 23 23
33 33 38 41 42 41 41 42 40 41 40 39 36 33 29 29 27 25 26 27 30 27 27 22 21 22 19 20 22 23 20 18 20 23 26 26 27 27
34 35 37 40 43 44 45 46 45 45 43 43 41 38 35 31 30 26 26 28 32 27 28 25 24 22 17 18 21 22 21 21 22 24 25 27 28 27
40 42 42 41 41 44 48 49 49 48 46 45 46 44 39 35 32 26 27 31 34 30 29 28 25 20 17 17 21 22 21 21 24 27 29 30 29 27
47 48 46 45 45 46 49 49 51 47 47 46 46 46 44 40 32 30 28 23 31 30 28 25 24 23 20 19 18 21 20 19 21 25 27 29 31 28
53 55 57 54 49 51 53 54 52 52 50 52 52 51 48 40 30 32 32 26 30 25 25 24 26 24 20 17 18 18 18 17 18 22 25 26 29 30
47 53 59 64 60 59 56 56 56 57 59 58 54 54 46 37 32 40 45 32 29 26 27 27 27 25 21 18 17 17 18 16 17 21 24 25 27 29
47 50 54 59 64 66 66 65 61 59 59 67 55 49 40 39 36 46 49 47 48 25 26 28 27 24 21 18 19 18 18 16 16 20 22 25 27 29
39 43 48 52 54 61 68 69 70 65 60 66 59 49 41 34 44 55 46 28 24 22 28 27 25 23 20 18 19 18 17 15 16 20 23 24 27 31
45 47 48 49 54 56 60 64 67 68 66 64 63 48 40 33 36 47 40 32 23 26 26 26 25 21 16 15 18 18 17 15 16 19 23 25 27 30
61 63 61 63 62 63 65 64 61 60 65 62 56 57 52 32 37 37 38 26 25 25 26 30 20 19 16 18 19 18 17 16 15 18 23 25 27 29
59 62 64 67 69 69 69 61 58 52 56 58 62 54 33 18 31 39 27 22 25 25 27 26 22 19 17 17 18 18 17 17 17 18 21 22 25 27
59 61 62 68 68 65 67 64 62 59 51 48 52 36 27 22 33 33 22 26 28 29 26 22 20 17 19 17 17 17 19 19 18 20 22 24 24 27
53 56 54 53 57 58 67 64 63 62 59 55 36 20 27 31 29 22 24 26 27 23 22 21 19 19 18 17 18 17 18 19 19 21 23 25 28 31
40 37 31 26 30 40 52 63 69 70 31 37 22 17 26 29 24 25 25 26 22 24 22 21 19 21 18 19 18 17 17 17 18 20 22 25 28 30

GFSNE_700_spd_042.txt.gz
Wind_Speed
9 8 6 5 5 5 6 7 6 7 7 8 7 8 8 8 8 9 9 9 9 9 10 9 8 10 12 10 11 12 13 14 15 13 12 14 16 17
13 10 8 5 3 1 1 2 4 6 8 10 10 9 8 8 8 8 9 10 10 9 10 11 11 12 13 11 11 11 14 16 15 15 15 17 18 19
17 14 13 11 7 5 5 5 6 7 8 10 11 12 11 11 13 14 13 13 11 10 9 11 11 11 13 13 12 12 15 17 15 16 18 19 21 21
21 20 17 16 13 12 11 9 9 9 10 12 13 14 14 13 13 13 15 15 13 13 10 10 9 12 14 15 13 12 15 15 15 15 14 16 19 20
22 23 21 22 19 18 17 16 16 16 16 14 14 17 17 17 16 14 15 16 17 13 13 12 11 10 12 13 12 14 14 14 14 14 13 15 17 21
20 23 24 25 25 24 24 24 23 23 23 23 21 21 20 20 21 18 17 16 17 16 15 15 13 11 10 13 16 15 14 14 13 13 11 14 15 18
18 19 22 25 26 27 28 27 29 29 30 29 28 28 27 26 25 23 25 21 22 21 16 17 17 12 10 28 23 20 17 14 12 12 11 12 13 15
19 19 20 21 24 28 30 31 32 35 36 36 35 36 33 32 31 30 28 29 26 23 21 17 18 14 12 21 24 23 22 18 17 13 12 11 12 12
18 18 19 20 22 24 25 28 33 35 39 40 42 42 41 37 35 36 37 36 31 25 27 24 22 18 14 15 22 25 23 21 18 14 13 12 11 12
21 20 22 21 23 23 25 27 29 31 33 35 39 40 43 41 41 39 41 41 41 36 31 29 26 24 19 16 14 26 24 24 19 15 14 12 11 12
28 28 28 29 30 32 34 36 37 37 39 39 39 39 40 41 39 41 46 48 49 41 35 32 32 28 27 18 18 22 33 25 21 17 15 13 11 11
33 31 30 30 33 37 40 42 42 38 43 44 45 47 46 47 46 47 46 50 49 47 42 39 32 34 33 21 26 32 30 26 25 18 15 14 13 12
37 34 34 34 35 39 41 42 41 42 43 45 47 49 51 54 56 54 53 54 51 49 44 42 37 38 42 32 33 28 29 27 25 19 17 15 15 13
38 36 37 38 40 42 44 43 43 45 48 49 52 51 47 47 52 55 55 55 54 53 46 47 43 40 43 42 38 25 29 29 25 20 19 16 17 15
40 40 41 42 43 44 46 46 45 42 41 42 45 48 47 50 51 48 50 51 54 57 58 52 50 43 46 32 25 27 30 30 25 22 20 19 20 17
41 41 41 43 43 42 35 32 35 41 46 50 55 55 56 58 59 58 54 55 51 53 65 59 54 42 39 33 36 31 30 30 25 24 23 21 21 18
38 39 38 34 31 32 37 41 44 49 55 56 58 60 60 59 62 59 58 56 58 56 58 43 31 31 38 42 37 35 30 30 26 26 25 23 23 20
32 28 27 31 35 40 45 50 55 58 58 60 62 62 62 63 65 65 66 64 60 57 55 55 32 27 33 41 36 33 32 28 27 26 25 25 24 22
25 27 30 34 39 43 50 55 58 58 59 61 62 59 64 60 65 71 72 66 73 56 52 51 25 31 35 40 28 28 27 27 27 24 25 25 25 23
28 31 34 37 39 44 48 54 58 58 58 56 55 55 54 55 52 57 62 66 75 61 49 36 38 31 40 27 26 25 26 27 25 24 26 26 25 21
31 34 37 39 40 43 46 49 51 52 53 52 48 46 45 42 40 54 71 62 58 60 34 25 31 35 29 24 28 29 28 26 24 25 27 26 23 19
34 37 39 40 40 42 42 42 42 43 46 47 48 47 39 32 28 30 24 29 17 12 13 20 35 28 29 28 26 23 26 26 27 28 26 23 19 18
35 36 37 38 38 37 35 37 39 36 36 35 26 27 25 18 24 23 21 13 32 16 23 29 26 27 23 21 21 24 25 26 26 24 21 21 19 20

GFSNE_700_spd_045.txt.gz
Wind_Speed
12 11 10 10 8 6 5 5 4 4 5 4 4 4 6 7 8 10 10 10 9 8 8 10 10 12 14 14 15 17 18 18 20 21 22 22 22 22
14 12 10 8 7 5 3 1 1 3 3 3 4 4 5 7 9 10 11 11 11 11 10 11 12 13 13 16 15 17 19 19 20 21 20 21 23 24
17 14 12 10 9 8 6 5 5 5 6 8 7 7 7 9 10 11 12 13 13 14 14 12 13 14 14 14 16 17 18 20 20 20 19 19 21 23
21 19 16 16 15 14 13 11 11 12 13 11 14 14 12 12 12 12 13 14 15 14 16 16 15 15 15 16 14 14 22 22 21 19 18 18 19 21
24 23 21 22 20 20 19 19 18 18 19 19 17 19 20 20 20 18 18 18 19 19 19 18 19 17 15 15 11 11 18 24 23 20 17 18 18 20
21 25 25 25 25 24 25 25 26 26 26 26 25 24 26 25 25 25 24 26 26 25 25 23 24 21 16 12 10 9 14 22 22 21 20 19 18 18
16 18 20 23 26 29 30 29 30 31 32 32 32 32 32 32 31 31 33 33 33 32 31 27 26 27 20 19 16 11 13 22 22 21 21 19 18 17
18 18 20 21 22 24 27 29 31 33 36 37 37 38 36 37 38 39 39 42 44 37 38 34 31 30 27 24 20 16 11 21 23 21 21 20 18 17
19 19 20 20 20 22 24 26 29 31 33 35 38 38 38 37 36 39 41 44 45 41 41 43 40 37 32 29 27 23 17 27 19 21 24 22 19 17
20 20 21 20 21 23 24 26 27 29 31 33 37 36 37 38 41 41 40 45 46 47 47 50 47 44 38 34 31 30 25 28 20 24 25 25 21 18
23 24 25 26 27 29 32 34 36 35 39 41 43 45 46 47 49 51 52 52 54 52 48 50 50 46 44 40 36 35 36 36 27 25 24 25 24 20
30 30 30 30 31 33 35 36 34 33 37 38 39 40 42 43 46 52 54 59 59 60 57 53 53 49 48 46 48 45 46 43 31 24 23 25 26 23
36 34 34 34 35 36 36 36 35 37 41 42 43 46 48 48 45 46 48 50 56 59 56 57 57 57 51 59 54 51 46 46 34 27 25 25 27 25
41 40 39 39 39 38 37 38 38 40 40 42 44 44 44 46 48 49 50 50 47 49 48 49 53 56 60 61 60 57 44 43 33 31 28 26 28 27
44 43 42 42 40 38 38 36 38 38 34 36 40 45 51 56 57 60 60 61 61 58 53 53 53 53 55 59 66 43 34 40 33 30 29 27 28 28
40 41 41 38 36 36 34 35 29 30 37 43 49 55 59 62 63 63 65 62 64 65 64 61 55 55 52 59 45 48 40 38 33 27 30 29 29 27
36 34 32 30 31 31 27 25 29 34 40 46 53 59 61 61 61 57 60 61 64 63 61 68 65 56 49 60 57 41 34 35 31 27 30 29 28 25
28 27 26 25 24 24 26 29 33 38 45 50 55 59 59 55 57 57 54 52 50 52 68 68 66 64 59 44 39 27 26 33 33 30 31 29 27 24
26 25 23 22 24 28 30 34 36 42 48 52 56 55 54 56 55 55 53 51 54 51 52 65 81 73 67 55 36 26 27 31 31 31 30 26 24 24
26 24 25 27 29 31 34 37 40 44 49 52 51 52 51 52 48 45 44 45 48 42 50 48 50 53 52 16 9 17 36 35 27 24 24 25 26 27
27 28 29 30 32 34 37 40 42 45 49 50 50 51 46 42 43 38 33 32 31 33 24 25 24 33 21 19 17 26 30 26 23 23 23 25 25 26
31 32 32 34 36 37 40 40 42 45 45 45 45 45 44 41 36 29 29 33 26 14 7 10 12 27 22 19 27 28 24 25 24 22 24 24 24 23
33 34 35 36 36 38 39 40 41 41 41 40 39 37 35 33 31 29 29 19 13 9 11 17 18 14 17 22 17 16 21 21 21 20 22 23 24 25

GFSNE_700_spd_048.txt.gz
Wind_Speed
12 11 10 10 11 9 7 6 5 4 3 3 5 6 8 10 10 10 11 11 12 13 13 13 14 15 16 16 17 17 17 19 23 25 25 26 26 25
14 13 11 9 8 7 6 5 3 2 1 1 2 4 6 8 9 10 12 13 14 16 16 16 16 17 17 18 18 19 18 17 21 24 26 25 26 24
19 17 15 13 11 9 7 6 5 6 5 6 6 6 6 9 12 12 13 15 16 18 19 21 19 19 20 19 18 18 17 17 16 22 24 24 25 24
21 20 18 17 15 14 13 11 11 12 13 12 12 14 14 14 15 17 18 19 19 21 23 24 24 24 23 22 20 17 18 14 16 23 25 23 23 23
25 24 22 22 20 19 18 18 18 19 20 21 19 20 21 24 25 23 24 25 26 26 28 29 29 28 27 26 23 20 18 14 15 27 31 26 23 21
26 26 25 26 25 24 24 23 24 25 27 28 28 27 27 27 31 30 31 32 34 35 35 37 37 35 30 29 27 26 20 17 15 16 32 28 24 22
19 20 22 25 26 27 28 26 28 30 31 32 33 34 31 32 34 35 38 37 40 39 41 41 41 41 37 33 34 32 31 26 21 16 32 29 25 23
17 17 19 20 21 22 25 26 29 31 33 34 34 36 35 35 34 37 39 40 43 39 40 42 41 43 42 39 35 36 36 36 33 24 24 34 26 22
19 19 19 20 21 22 23 25 27 29 31 32 31 31 31 33 36 39 40 42 45 45 48 50 46 45 44 46 42 39 42 42 46 39 31 26 26 24
21 20 21 20 21 22 22 23 23 27 30 33 37 36 39 40 44 47 49 52 52 53 55 60 54 56 48 46 47 46 46 47 49 47 41 30 29 26
21 22 22 22 22 24 27 30 31 33 36 38 41 43 43 42 46 49 48 51 52 52 51 53 52 56 56 55 52 47 50 52 51 49 49 43 33 32
25 26 26 26 28 31 33 35 34 32 35 34 33 33 36 36 38 43 48 51 53 52 51 54 50 51 55 50 51 53 51 58 59 54 53 43 30 28
31 31 32 33 34 36 36 36 36 35 35 35 33 36 38 36 37 39 46 47 50 58 52 51 54 55 56 54 54 48 49 59 65 62 52 47 34 29
37 37 37 38 38 39 40 39 37 35 35 35 36 38 32 35 42 50 53 57 57 58 56 55 60 59 60 59 60 54 58 52 56 65 44 28 30 30
36 38 39 40 41 42 41 39 36 34 32 35 31 28 33 40 48 54 58 60 59 56 53 51 55 56 57 61 62 58 53 52 55 45 50 31 35 31
33 33 34 34 35 36 36 33 31 30 29 26 29 32 38 44 50 57 61 60 60 57 51 50 50 48 43 49 58 71 51 55 34 49 29 29 37 29
31 32 31 30 31 31 28 27 29 25 25 29 33 36 42 47 53 55 57 57 56 55 52 52 53 50 45 46 54 62 67 61 44 40 19 28 29 28
29 28 28 29 26 24 26 24 23 25 27 31 36 40 44 49 55 57 54 50 53 53 53 51 49 38 41 48 56 64 52 43 34 15 24 32 32 27
29 27 25 25 26 26 23 23 24 26 29 33 37 41 45 50 55 53 50 50 47 45 46 48 38 34 36 38 45 38 28 32 19 25 26 33 29 22
28 26 25 23 23 24 25 26 27 28 31 35 38 42 45 50 51 47 44 44 43 43 41 26 33 25 18 22 17 17 23 8 7 16 25 28 28 25
28 26 25 25 26 27 28 29 30 32 34 36 39 43 46 47 44 41 40 45 41 40 33 30 30 19 15 8 11 17 14 15 16 20 26 26 26 25
25 26 28 30 31 30 30 31 33 33 36 38 40 43 44 43 41 39 43 39 36 29 29 31 25 18 14 20 16 19 19 17 24 31 29 25 21 18
29 31 32 32 32 32 32 34 34 35 37 39 41 41 39 37 37 36 33 33 29 27 28 25 25 25 24 18 13 11 12 16 16 21 24 21 20 20